NINGXIA-1 5 (44783 NORAD) Tracking and Keplerian Element Data

This shows tracking and keplerian element data for the satellite.

Feedback or suggestion? Click here.




ElementValue
Catalog44783
NameNINGXIA-1 5
Epoch Orbit312
Epoch Day339.49467366
Epoch Year2019
RAAN36.0898
Inclination45.0098
Eccentricity0.001123
Argument of Perigee12.9039
Mean Anonmoly347.2072
Mean Motion14.01676583
Decay Rate-1.3E-06
L11 44783U 19076E 19339.49467366 -.00000130 00000-0 00000+0 0 9993
L22 44783 45.0098 36.0898 0011230 12.9039 347.2072 14.01676583 3121

Live tracking and technical data element details for NINGXIA-1 5 (NORAD 44783). NINGXIA-1 5 can be tracked NOW for your location showing map with azimuth and elevation plus other details from your city location.

Track the satellite on the map from your city or location and see movement details for azimuth, elevation, latitude, longitude, range, height, and movement on the map or in text.







IsCatalogInMostPopularTable: catalog: 44783, numindb: 5
Update: records affected: 1



GetName: 44783 NINGXIA-1 5

Hit Count: updated at: Thu, 05 Dec 2019 17:33:37 GMT